Weather History for Sedalia, MO

Change the Weather History Date:

Friday, May 10, 2013

  Actual Average Record
Temperature  
Mean Temperature 58 °F 64 °F  
Max Temperature 64 °F 74 °F 89 °F (1962)
Min Temperature 51 °F 54 °F 33 °F (1980)
Degree Days  
Heating Degree Days 7 3  
Month to date heating degree days 99 42  
Since 1 July heating degree days 4698 4524  
Cooling Degree Days 0 2  
Month to date cooling degree days 7 17  
Year to date cooling degree days 33 51  
Growing Degree Days 8 (Base 50)    
Moisture  
Dew Point 54 °F    
Average Humidity 80    
Maximum Humidity 93    
Minimum Humidity 67    
Precipitation  
Precipitation 0.00 in 0.15 in 1.91 in (1946)
Month to date precipitation 1.45 1.63  
Year to date precipitation 15.17 12.09  
Sea Level Pressure  
Sea Level Pressure 29.98 in    
Wind  
Wind Speed 7 mph (NNW)    
Max Wind Speed 15 mph    
Max Gust Speed 18 mph    
Visibility 10 miles    
Events      
T = Trace of Precipitation, MM = Missing Value Source: NWS Daily Summary

Daily Weather History Graph

Daily Weather History Graph

Search for Another Location

Airport:

Trip Planner

Search our weather history database for the weather conditions in past years. The results will help you decide how hot, cold, wet, or windy it might be!

Date:

Astronomy

May. 10, 2013 Rise Set
Actual Time 6:05 AM CDT 8:13 PM CDT
Civil Twilight 5:35 AM CDT 8:43 PM CDT
Nautical Twilight 4:59 AM CDT 9:19 PM CDT
Astronomical Twilight 4:20 AM CDT 9:58 PM CDT
Moon 6:29 AM CDT (5/10) 9:03 PM CDT (5/10)
Length of Visible Light 15h 07m
Length of Day
14h 08m
New Moon, 0% of the Moon is Illuminated
May 10
New Moon
May 17
First Quarter
May 24
Full
May 31
Last Quarter
Jun 8
New

Hourly Weather History & Observations

Time (CDT) Temp. Dew Point Humidity Pressure Visibility Wind Dir Wind Speed Gust Speed Precip Events Conditions
1:53 AM 63.0 °F 57.9 °F 84% 29.88 in 10.0 mi West 4.6 mph - N/A   Overcast
2:53 AM 62.1 °F 57.0 °F 84% 29.88 in 10.0 mi SW 4.6 mph - N/A   Mostly Cloudy
3:53 AM 59.0 °F 55.9 °F 90% 29.88 in 10.0 mi WNW 5.8 mph - N/A   Clear
4:53 AM 59.0 °F 55.9 °F 90% 29.89 in 10.0 mi NW 10.4 mph - N/A   Clear
5:08 AM 59.0 °F 55.4 °F 88% 29.91 in 10.0 mi NW 8.1 mph - N/A   Scattered Clouds
5:17 AM 57.2 °F 55.4 °F 94% 29.91 in 10.0 mi NNW 10.4 mph - N/A   Mostly Cloudy
5:53 AM 57.9 °F 55.9 °F 93% 29.90 in 8.0 mi NNW 8.1 mph - N/A   Overcast
6:08 AM 57.2 °F 55.4 °F 94% 29.92 in 8.0 mi North 8.1 mph - N/A   Overcast
6:53 AM 57.9 °F 55.9 °F 93% 29.93 in 6.0 mi NW 8.1 mph - N/A   Overcast
7:23 AM 59.0 °F 55.4 °F 88% 29.94 in 8.0 mi North 8.1 mph - N/A   Mostly Cloudy
8:53 AM 59.0 °F 55.0 °F 87% 29.96 in 10.0 mi NNW 8.1 mph - N/A   Overcast
9:04 AM 60.8 °F 55.4 °F 82% 29.97 in 10.0 mi NNW 9.2 mph - N/A   Overcast
9:53 AM 60.1 °F 55.0 °F 83% 29.97 in 10.0 mi NNW 9.2 mph - N/A   Overcast
10:18 AM 60.8 °F 55.4 °F 82% 29.99 in 10.0 mi North 11.5 mph - N/A   Overcast
10:46 AM 59.0 °F 55.4 °F 88% 30.00 in 8.0 mi NNW 11.5 mph - N/A   Overcast
10:53 AM 57.9 °F 55.0 °F 90% 29.99 in 8.0 mi NNW 10.4 mph - N/A   Overcast
11:32 AM 60.8 °F 53.6 °F 77% 30.00 in 10.0 mi NNW 9.2 mph - N/A   Overcast
11:39 AM 60.8 °F 53.6 °F 77% 30.00 in 10.0 mi NNW 11.5 mph - N/A   Overcast
11:49 AM 59.0 °F 53.6 °F 82% 30.00 in 10.0 mi NNW 9.2 mph - N/A   Overcast
12:53 PM 57.9 °F 53.1 °F 84% 30.00 in 10.0 mi NNW 12.7 mph - N/A   Overcast
1:53 PM 57.9 °F 53.1 °F 84% 30.01 in 10.0 mi NW 12.7 mph - N/A   Overcast
2:32 PM 57.2 °F 53.6 °F 88% 30.01 in 10.0 mi NNW 10.4 mph - N/A   Overcast
2:53 PM 59.0 °F 53.1 °F 81% 30.01 in 10.0 mi North 9.2 mph - N/A   Overcast
3:17 PM 60.8 °F 53.6 °F 77% 30.02 in 10.0 mi NNW 12.7 mph - N/A   Overcast
3:53 PM 60.1 °F 52.0 °F 75% 30.01 in 10.0 mi NNW 9.2 mph - N/A   Overcast
4:37 PM 60.8 °F 51.8 °F 72% 30.01 in 10.0 mi NNW 8.1 mph - N/A   Overcast
4:53 PM 61.0 °F 52.0 °F 72% 30.01 in 10.0 mi NW 6.9 mph - N/A   Overcast
5:17 PM 60.8 °F 51.8 °F 72% 30.01 in 10.0 mi NW 6.9 mph - N/A   Overcast
5:53 PM 62.1 °F 52.0 °F 70% 30.00 in 10.0 mi North 11.5 mph - N/A   Overcast
6:53 PM 61.0 °F 51.1 °F 70% 30.01 in 10.0 mi North 11.5 mph - N/A   Overcast
7:53 PM 60.1 °F 51.1 °F 72% 30.01 in 10.0 mi Calm Calm - N/A   Overcast
8:53 PM 57.0 °F 50.0 °F 77% 30.02 in 10.0 mi Calm Calm - N/A   Clear
9:53 PM 55.0 °F 50.0 °F 83% 30.04 in 10.0 mi Calm Calm - N/A   Clear
10:53 PM 54.0 °F 48.9 °F 83% 30.05 in 10.0 mi Calm Calm - N/A   Clear
11:53 PM 53.1 °F 50.0 °F 89% 30.05 in 10.0 mi Calm Calm - N/A   Clear